AMX920 KSAN-MMMY

Flight info

Callsign AMX920
Flight time 2h 43m
Altitude 37000
Route ZZOOO4 CENZA DCT TIJ UT18 HMO UJ38 SLW SLW1B
Aircraft B38M/M-SDE1FGHILORVWXY/HB1

Departure

Time 2026-05-07 16:09
Airport San Diego International Airport (KSAN)

Arrival

Time 2026-05-07 18:52
Airport Monterrey International Airport (MMMY)
Time Latitude Longitude Altitude Speed Heading
2026-05-07 15:46 32.73253 -117.20605 29 ft 0 kts 188°
2026-05-07 15:52 32.73263 -117.20603 29 ft 1 kts 188°
2026-05-07 15:52 32.73279 -117.20601 27 ft 3 kts 188°
2026-05-07 15:52 32.73297 -117.20598 31 ft 3 kts 188°
2026-05-07 15:52 32.73314 -117.20595 29 ft 3 kts 188°
2026-05-07 15:53 32.73332 -117.20591 27 ft 3 kts 188°
2026-05-07 15:53 32.73350 -117.20588 29 ft 3 kts 188°
2026-05-07 15:53 32.73368 -117.20585 27 ft 3 kts 188°
2026-05-07 15:53 32.73382 -117.20583 29 ft 0 kts 188°
2026-05-07 15:59 32.73381 -117.20583 29 ft 1 kts 186°
2026-05-07 15:59 32.73380 -117.20583 28 ft 0 kts 186°
2026-05-07 16:00 32.73355 -117.20572 29 ft 12 kts 138°
2026-05-07 16:00 32.73355 -117.20539 28 ft 0 kts
2026-05-07 16:00 32.73421 -117.20547 25 ft 12 kts 353°
2026-05-07 16:00 32.73495 -117.20526 24 ft 10 kts 44°
2026-05-07 16:01 32.73545 -117.20466 20 ft 10 kts 52°
2026-05-07 16:01 32.73575 -117.20405 21 ft 7 kts 65°
2026-05-07 16:01 32.73579 -117.20365 23 ft 4 kts 89°
2026-05-07 16:01 32.73572 -117.20312 27 ft 9 kts 110°
2026-05-07 16:02 32.73543 -117.20214 30 ft 16 kts 104°
2026-05-07 16:02 32.73517 -117.20069 31 ft 18 kts 102°
2026-05-07 16:02 32.73488 -117.19936 27 ft 15 kts 105°
2026-05-07 16:02 32.73460 -117.19828 27 ft 13 kts 107°
2026-05-07 16:03 32.73437 -117.19729 27 ft 12 kts 103°
2026-05-07 16:03 32.73416 -117.19636 26 ft 11 kts 106°
2026-05-07 16:03 32.73390 -117.19528 27 ft 16 kts 106°
2026-05-07 16:03 32.73359 -117.19396 30 ft 18 kts 105°
2026-05-07 16:04 32.73324 -117.19247 24 ft 20 kts 106°
2026-05-07 16:04 32.73287 -117.19094 29 ft 19 kts 106°
2026-05-07 16:04 32.73248 -117.18945 28 ft 19 kts 107°
2026-05-07 16:04 32.73211 -117.18794 27 ft 19 kts 107°
2026-05-07 16:05 32.73175 -117.18645 27 ft 19 kts 105°
2026-05-07 16:05 32.73134 -117.18483 25 ft 21 kts 107°
2026-05-07 16:05 32.73094 -117.18313 26 ft 22 kts 104°
2026-05-07 16:05 32.73053 -117.18134 23 ft 23 kts 106°
2026-05-07 16:06 32.73005 -117.17947 20 ft 24 kts 107°
2026-05-07 16:06 32.72967 -117.17789 18 ft 15 kts 106°
2026-05-07 16:06 32.72952 -117.17724 20 ft 0 kts 101°
2026-05-07 16:07 32.72952 -117.17725 20 ft 0 kts 101°
2026-05-07 16:07 32.72953 -117.17730 21 ft 0 kts 101°
2026-05-07 16:07 32.72949 -117.17691 19 ft 22 kts 94°
2026-05-07 16:08 32.73025 -117.17615 24 ft 13 kts 300°
2026-05-07 16:08 32.73031 -117.17633 21 ft 15 kts 290°
2026-05-07 16:08 32.73159 -117.18135 22 ft 110 kts 284°
2026-05-07 16:08 32.73465 -117.19357 93 ft 195 kts 287°
2026-05-07 16:09 32.73885 -117.21037 1154 ft 207 kts 286°
2026-05-07 16:09 32.74284 -117.22735 1956 ft 228 kts 285°
2026-05-07 16:09 32.74739 -117.24654 2669 ft 251 kts 287°
2026-05-07 16:09 32.75223 -117.26704 3615 ft 262 kts 287°
2026-05-07 16:10 32.75720 -117.28815 4671 ft 268 kts 287°
2026-05-07 16:10 32.76215 -117.30971 5652 ft 274 kts 284°
2026-05-07 16:10 32.76441 -117.33241 6301 ft 285 kts 267°
2026-05-07 16:10 32.75832 -117.35511 5010 ft 304 kts 238°
2026-05-07 16:11 32.74164 -117.36893 4106 ft 299 kts 191°
2026-05-07 16:11 32.72236 -117.36499 4146 ft 273 kts 153°
2026-05-07 16:11 32.70845 -117.34973 4429 ft 270 kts 127°
2026-05-07 16:11 32.69695 -117.33264 5455 ft 262 kts 128°
2026-05-07 16:12 32.68489 -117.31584 6381 ft 274 kts 130°
2026-05-07 16:12 32.66927 -117.30247 7377 ft 277 kts 149°
2026-05-07 16:12 32.65549 -117.28787 8777 ft 259 kts 124°
2026-05-07 16:12 32.64788 -117.26897 9977 ft 254 kts 104°
2026-05-07 16:13 32.64563 -117.24799 10731 ft 262 kts 92°
2026-05-07 16:13 32.64329 -117.22617 11484 ft 270 kts 98°
2026-05-07 16:13 32.63690 -117.20493 12279 ft 280 kts 114°
2026-05-07 16:13 32.62644 -117.18552 13118 ft 285 kts 123°
2026-05-07 16:14 32.61384 -117.16721 14020 ft 285 kts 123°
2026-05-07 16:14 32.60332 -117.14717 14669 ft 289 kts 114°
2026-05-07 16:14 32.59499 -117.12485 14978 ft 312 kts 109°
2026-05-07 16:14 32.58654 -117.10029 14215 ft 324 kts 109°
2026-05-07 16:15 32.57880 -117.07609 14463 ft 301 kts 107°
2026-05-07 16:15 32.57113 -117.05330 14888 ft 310 kts 109°
2026-05-07 16:15 32.56287 -117.02774 14558 ft 360 kts 106°
2026-05-07 16:15 32.55524 -116.99786 14371 ft 378 kts 99°
2026-05-07 16:16 32.54836 -116.96761 14752 ft 387 kts 109°
2026-05-07 16:16 32.53688 -116.93856 14911 ft 394 kts 114°
2026-05-07 16:16 32.52397 -116.90992 14428 ft 391 kts 119°
2026-05-07 16:16 32.50616 -116.88651 15058 ft 382 kts 141°
2026-05-07 16:17 32.48211 -116.87259 16001 ft 392 kts 162°
2026-05-07 16:17 32.45471 -116.86938 16944 ft 403 kts 181°
2026-05-07 16:17 32.42652 -116.86966 17818 ft 408 kts 169°
2026-05-07 16:17 32.39984 -116.85892 18677 ft 407 kts 147°
2026-05-07 16:18 32.37623 -116.84032 19470 ft 409 kts 141°
2026-05-07 16:18 32.35305 -116.82045 20236 ft 414 kts 140°
2026-05-07 16:18 32.33165 -116.79776 20989 ft 414 kts 124°
2026-05-07 16:18 32.31562 -116.76959 21784 ft 416 kts 120°
2026-05-07 16:19 32.29878 -116.74143 22548 ft 423 kts 121°
2026-05-07 16:19 32.28142 -116.71308 23296 ft 428 kts 122°
2026-05-07 16:19 32.26381 -116.68443 23959 ft 433 kts 122°
2026-05-07 16:19 32.24597 -116.65550 24608 ft 437 kts 121°
2026-05-07 16:20 32.22800 -116.62638 25224 ft 441 kts 122°
2026-05-07 16:20 32.20986 -116.59705 25869 ft 444 kts 122°
2026-05-07 16:20 32.19160 -116.56744 26448 ft 449 kts 122°
2026-05-07 16:20 32.17310 -116.53754 27043 ft 453 kts 122°
2026-05-07 16:21 32.15443 -116.50736 27629 ft 457 kts 121°
2026-05-07 16:21 32.13557 -116.47697 28212 ft 461 kts 122°
2026-05-07 16:21 32.11654 -116.44631 28793 ft 465 kts 122°
2026-05-07 16:21 32.09731 -116.41542 29362 ft 469 kts 121°
2026-05-07 16:22 32.07798 -116.38439 30068 ft 469 kts 122°
2026-05-07 16:22 32.05860 -116.35347 30728 ft 469 kts 122°
2026-05-07 16:22 32.03918 -116.32249 31340 ft 470 kts 122°
2026-05-07 16:22 32.02003 -116.29189 31952 ft 470 kts 122°
2026-05-07 16:23 32.00064 -116.26083 32561 ft 471 kts 122°
2026-05-07 16:23 31.98129 -116.22968 33135 ft 472 kts 122°
2026-05-07 16:23 31.96196 -116.19837 33721 ft 473 kts 122°
2026-05-07 16:23 31.94268 -116.16700 34283 ft 473 kts 122°
2026-05-07 16:24 31.92351 -116.13554 34803 ft 472 kts 122°
2026-05-07 16:24 31.90451 -116.10404 35319 ft 472 kts 122°
2026-05-07 16:24 31.88564 -116.07246 35852 ft 471 kts 122°
2026-05-07 16:24 31.86690 -116.04084 36368 ft 471 kts 122°
2026-05-07 16:25 31.84852 -116.00948 36668 ft 462 kts 122°
2026-05-07 16:25 31.83036 -115.97828 36830 ft 463 kts 122°
2026-05-07 16:25 31.81211 -115.94673 36905 ft 469 kts 122°
2026-05-07 16:26 31.77537 -115.88268 36934 ft 473 kts 121°
2026-05-07 16:26 31.73893 -115.81883 36941 ft 469 kts 121°
2026-05-07 16:27 31.70277 -115.75515 36947 ft 470 kts 121°
2026-05-07 16:27 31.66658 -115.69102 36946 ft 471 kts 121°
2026-05-07 16:28 31.63058 -115.62680 36941 ft 470 kts 121°
2026-05-07 16:28 31.59481 -115.56263 36946 ft 470 kts 121°
2026-05-07 16:29 31.55913 -115.49828 36926 ft 471 kts 121°
2026-05-07 16:29 31.52382 -115.43428 36932 ft 471 kts 121°
2026-05-07 16:30 31.48820 -115.36932 36922 ft 471 kts 121°
2026-05-07 16:30 31.45294 -115.30474 36918 ft 470 kts 121°
2026-05-07 16:31 31.41803 -115.24040 36916 ft 472 kts 121°
2026-05-07 16:31 31.39457 -115.19693 36915 ft 472 kts 121°
2026-05-07 16:32 31.36104 -115.13447 36907 ft 471 kts 121°
2026-05-07 16:32 31.32817 -115.06818 36908 ft 471 kts 118°
2026-05-07 16:33 31.29612 -115.00120 36799 ft 472 kts 116°
2026-05-07 16:33 31.26178 -114.93570 36882 ft 473 kts 118°
2026-05-07 16:34 31.22636 -114.87068 36889 ft 475 kts 118°
2026-05-07 16:34 31.19074 -114.80588 36886 ft 473 kts 118°
2026-05-07 16:35 31.16112 -114.75224 36889 ft 473 kts 118°
2026-05-07 16:35 31.12538 -114.68760 36887 ft 474 kts 118°
2026-05-07 16:36 31.08957 -114.62288 36882 ft 475 kts 118°
2026-05-07 16:36 31.05383 -114.55819 36883 ft 474 kts 118°
2026-05-07 16:37 31.01823 -114.49361 36884 ft 474 kts 118°
2026-05-07 16:37 30.98267 -114.42884 36886 ft 475 kts 118°
2026-05-07 16:38 30.94715 -114.36394 36881 ft 474 kts 118°
2026-05-07 16:38 30.91183 -114.29912 36888 ft 474 kts 118°
2026-05-07 16:39 30.87669 -114.23423 36887 ft 475 kts 118°
2026-05-07 16:39 30.84169 -114.16906 36892 ft 475 kts 118°
2026-05-07 16:40 30.80696 -114.10380 36892 ft 474 kts 118°
2026-05-07 16:40 30.77249 -114.03843 36890 ft 475 kts 118°
2026-05-07 16:41 30.73817 -113.97271 36889 ft 476 kts 118°
2026-05-07 16:41 30.70407 -113.90680 36888 ft 475 kts 118°
2026-05-07 16:42 30.67031 -113.84084 36887 ft 475 kts 118°
2026-05-07 16:42 30.63680 -113.77469 36889 ft 476 kts 118°
2026-05-07 16:43 30.60350 -113.70823 36887 ft 476 kts 118°
2026-05-07 16:43 30.57047 -113.64156 36884 ft 476 kts 118°
2026-05-07 16:44 30.53770 -113.57474 36889 ft 477 kts 118°
2026-05-07 16:44 30.50515 -113.50770 36892 ft 477 kts 118°
2026-05-07 16:45 30.47285 -113.44052 36884 ft 477 kts 118°
2026-05-07 16:45 30.44102 -113.37364 36885 ft 477 kts 118°
2026-05-07 16:46 30.40922 -113.30609 36885 ft 478 kts 118°
2026-05-07 16:46 30.37840 -113.23789 36888 ft 478 kts 113°
2026-05-07 16:47 30.34849 -113.16933 36887 ft 477 kts 118°
2026-05-07 16:47 30.31656 -113.10129 36881 ft 478 kts 118°
2026-05-07 16:48 30.28477 -113.03371 36885 ft 478 kts 118°
2026-05-07 16:48 30.25318 -112.96609 36879 ft 478 kts 118°
2026-05-07 16:49 30.22183 -112.89833 36887 ft 478 kts 118°
2026-05-07 16:49 30.19087 -112.83076 36882 ft 479 kts 118°
2026-05-07 16:50 30.15994 -112.76255 36885 ft 479 kts 118°
2026-05-07 16:50 30.12926 -112.69421 36886 ft 479 kts 118°
2026-05-07 16:51 30.09888 -112.62586 36888 ft 478 kts 118°
2026-05-07 16:51 30.06877 -112.55734 36880 ft 479 kts 118°
2026-05-07 16:52 30.03893 -112.48861 36878 ft 479 kts 118°
2026-05-07 16:52 30.00938 -112.41970 36871 ft 479 kts 118°
2026-05-07 16:53 29.98013 -112.35057 36870 ft 480 kts 118°
2026-05-07 16:53 29.95118 -112.28123 36869 ft 480 kts 118°
2026-05-07 16:54 29.92251 -112.21160 36867 ft 481 kts 118°
2026-05-07 16:54 29.89417 -112.14186 36868 ft 480 kts 118°
2026-05-07 16:55 29.86614 -112.07197 36859 ft 481 kts 118°
2026-05-07 16:55 29.83833 -112.00177 36863 ft 482 kts 118°
2026-05-07 16:56 29.81075 -111.93128 36859 ft 482 kts 118°
2026-05-07 16:56 29.76996 -111.82550 36853 ft 482 kts 118°
2026-05-07 16:57 29.74307 -111.75476 36844 ft 483 kts 118°
2026-05-07 16:57 29.71638 -111.68377 36840 ft 484 kts 118°
2026-05-07 16:58 29.69009 -111.61308 36842 ft 483 kts 118°
2026-05-07 16:58 29.66391 -111.54190 36844 ft 484 kts 118°
2026-05-07 16:59 29.63797 -111.47044 36834 ft 484 kts 118°
2026-05-07 16:59 29.62173 -111.42527 36832 ft 484 kts 118°
2026-05-07 17:00 29.59623 -111.35373 36834 ft 484 kts 118°
2026-05-07 17:00 29.57094 -111.28201 36832 ft 485 kts 118°
2026-05-07 17:01 29.54587 -111.21011 36824 ft 485 kts 118°
2026-05-07 17:01 29.53756 -111.18612 36823 ft 485 kts 118°
2026-05-07 17:02 29.51289 -111.11415 36822 ft 485 kts 118°
2026-05-07 17:02 29.48842 -111.04202 36813 ft 485 kts 118°
2026-05-07 17:03 29.46418 -110.96979 36819 ft 485 kts 118°
2026-05-07 17:03 29.44010 -110.89745 36813 ft 486 kts 118°
2026-05-07 17:04 29.41622 -110.82483 36822 ft 487 kts 118°
2026-05-07 17:04 29.38473 -110.75854 36844 ft 459 kts 142°
2026-05-07 17:05 29.33868 -110.70855 36846 ft 455 kts 147°
2026-05-07 17:05 29.29175 -110.66070 36818 ft 453 kts 147°
2026-05-07 17:06 29.24436 -110.61258 36821 ft 452 kts 148°
2026-05-07 17:06 29.19762 -110.56490 36827 ft 454 kts 148°
2026-05-07 17:07 29.15062 -110.51652 36825 ft 454 kts 148°
2026-05-07 17:07 29.13043 -110.49564 36826 ft 453 kts 148°
2026-05-07 17:08 29.09137 -110.45497 36828 ft 453 kts 148°
2026-05-07 17:08 29.06347 -110.42571 36837 ft 454 kts 148°
2026-05-07 17:09 29.01702 -110.37663 36831 ft 455 kts 148°
2026-05-07 17:09 28.97079 -110.32726 36833 ft 454 kts 148°
2026-05-07 17:10 28.92492 -110.27774 36836 ft 454 kts 147°
2026-05-07 17:10 28.87915 -110.22788 36838 ft 455 kts 147°
2026-05-07 17:11 28.83427 -110.17660 36826 ft 469 kts 137°
2026-05-07 17:11 28.81817 -110.14326 36860 ft 494 kts 119°
2026-05-07 17:11 28.80916 -110.10472 36877 ft 509 kts 110°
2026-05-07 17:12 28.80357 -110.07127 36863 ft 513 kts 109°
2026-05-07 17:12 28.79595 -110.02002 36836 ft 515 kts 108°
2026-05-07 17:13 28.78490 -109.93946 36829 ft 513 kts 107°
2026-05-07 17:13 28.77424 -109.85904 36835 ft 514 kts 107°
2026-05-07 17:14 28.76363 -109.77827 36834 ft 516 kts 107°
2026-05-07 17:14 28.75318 -109.69759 36823 ft 514 kts 107°
2026-05-07 17:15 28.74289 -109.61693 36837 ft 515 kts 107°
2026-05-07 17:15 28.73263 -109.53605 36850 ft 516 kts 107°
2026-05-07 17:16 28.72245 -109.45518 36874 ft 515 kts 107°
2026-05-07 17:16 28.71240 -109.37445 36863 ft 514 kts 107°
2026-05-07 17:17 28.70244 -109.29368 36827 ft 514 kts 107°
2026-05-07 17:17 28.69255 -109.21332 36808 ft 511 kts 107°
2026-05-07 17:18 28.68272 -109.13291 36822 ft 516 kts 107°
2026-05-07 17:18 28.67291 -109.05180 36876 ft 516 kts 107°
2026-05-07 17:19 28.66316 -108.97093 36904 ft 515 kts 107°
2026-05-07 17:19 28.65353 -108.89018 36899 ft 514 kts 107°
2026-05-07 17:20 28.64409 -108.80965 36876 ft 513 kts 107°
2026-05-07 17:20 28.63471 -108.72902 36869 ft 514 kts 107°
2026-05-07 17:21 28.62514 -108.64855 36923 ft 513 kts 106°
2026-05-07 17:21 28.61699 -108.58169 36888 ft 513 kts 107°
2026-05-07 17:22 28.60750 -108.50115 36938 ft 515 kts 107°
2026-05-07 17:22 28.59807 -108.42023 36890 ft 515 kts 107°
2026-05-07 17:23 28.58906 -108.33969 36921 ft 513 kts 107°
2026-05-07 17:23 28.58006 -108.25904 36919 ft 515 kts 107°
2026-05-07 17:24 28.57096 -108.17831 36933 ft 515 kts 107°
2026-05-07 17:24 28.56187 -108.09733 36953 ft 516 kts 107°
2026-05-07 17:25 28.55277 -108.01644 36915 ft 514 kts 107°
2026-05-07 17:25 28.54391 -107.93593 36911 ft 513 kts 107°
2026-05-07 17:26 28.53507 -107.85533 36888 ft 513 kts 107°
2026-05-07 17:26 28.52621 -107.77466 36905 ft 515 kts 107°
2026-05-07 17:27 28.51738 -107.69382 36906 ft 515 kts 107°
2026-05-07 17:27 28.50861 -107.61306 36893 ft 514 kts 106°
2026-05-07 17:28 28.49975 -107.53229 36879 ft 514 kts 107°
2026-05-07 17:28 28.49098 -107.45183 36897 ft 513 kts 106°
2026-05-07 17:29 28.48228 -107.37121 36920 ft 515 kts 106°
2026-05-07 17:29 28.47350 -107.29035 36924 ft 515 kts 106°
2026-05-07 17:30 28.46478 -107.20980 36919 ft 513 kts 106°
2026-05-07 17:30 28.45607 -107.12924 36921 ft 514 kts 106°
2026-05-07 17:31 28.44724 -107.04851 36890 ft 515 kts 106°
2026-05-07 17:31 28.43860 -106.96829 36910 ft 514 kts 106°
2026-05-07 17:32 28.42985 -106.88730 36910 ft 513 kts 106°
2026-05-07 17:32 28.42118 -106.80736 36920 ft 514 kts 106°
2026-05-07 17:33 28.41245 -106.72662 36908 ft 515 kts 106°
2026-05-07 17:33 28.40382 -106.64594 36888 ft 514 kts 106°
2026-05-07 17:34 28.39517 -106.56537 36917 ft 514 kts 106°
2026-05-07 17:34 28.38648 -106.48465 36907 ft 515 kts 106°
2026-05-07 17:35 28.38008 -106.42546 36898 ft 514 kts 106°
2026-05-07 17:35 28.37154 -106.34486 36896 ft 515 kts 106°
2026-05-07 17:36 28.36293 -106.26391 36896 ft 518 kts 106°
2026-05-07 17:36 28.35437 -106.18276 36881 ft 517 kts 106°
2026-05-07 17:37 28.34598 -106.10158 36901 ft 518 kts 106°
2026-05-07 17:37 28.33769 -106.02017 36866 ft 519 kts 106°
2026-05-07 17:38 28.32939 -105.93877 36863 ft 519 kts 106°
2026-05-07 17:38 28.32107 -105.85758 36833 ft 517 kts 106°
2026-05-07 17:39 28.31272 -105.77634 36843 ft 519 kts 106°
2026-05-07 17:39 28.30431 -105.69488 36832 ft 520 kts 106°
2026-05-07 17:40 28.29599 -105.61403 36829 ft 520 kts 106°
2026-05-07 17:40 28.28760 -105.53261 36820 ft 519 kts 105°
2026-05-07 17:41 28.28157 -105.47446 36825 ft 518 kts 105°
2026-05-07 17:41 28.27316 -105.39385 36832 ft 518 kts 105°
2026-05-07 17:42 28.26465 -105.31266 36830 ft 519 kts 105°
2026-05-07 17:42 28.25621 -105.23178 36837 ft 516 kts 105°
2026-05-07 17:43 28.24767 -105.15078 36841 ft 518 kts 105°
2026-05-07 17:43 28.24035 -105.08265 36844 ft 520 kts 105°
2026-05-07 17:44 28.23334 -105.01797 36842 ft 519 kts 105°
2026-05-07 17:44 28.22448 -104.93693 36830 ft 517 kts 105°
2026-05-07 17:45 28.21563 -104.85598 36845 ft 518 kts 105°
2026-05-07 17:45 28.20664 -104.77471 36856 ft 519 kts 105°
2026-05-07 17:46 28.19762 -104.69355 36842 ft 519 kts 105°
2026-05-07 17:46 28.18858 -104.61246 36842 ft 518 kts 105°
2026-05-07 17:47 28.17952 -104.53145 36853 ft 518 kts 105°
2026-05-07 17:47 28.17044 -104.45086 36847 ft 519 kts 105°
2026-05-07 17:48 28.16259 -104.39307 36825 ft 508 kts 116°
2026-05-07 17:48 28.15434 -104.36798 36858 ft 491 kts 127°
2026-05-07 17:49 28.13605 -104.33665 36887 ft 466 kts 144°
2026-05-07 17:49 28.11263 -104.31244 36915 ft 451 kts 153°
2026-05-07 17:49 28.08644 -104.28927 36892 ft 451 kts 154°
2026-05-07 17:50 28.03657 -104.24653 36849 ft 448 kts 155°
2026-05-07 17:50 27.98668 -104.20434 36854 ft 447 kts 155°
2026-05-07 17:51 27.93659 -104.16221 36865 ft 451 kts 154°
2026-05-07 17:51 27.92048 -104.14698 36857 ft 461 kts 148°
2026-05-07 17:52 27.89660 -104.12081 36859 ft 464 kts 146°
2026-05-07 17:52 27.85138 -104.06851 36855 ft 465 kts 145°
2026-05-07 17:53 27.80642 -104.01570 36856 ft 468 kts 145°
2026-05-07 17:53 27.76117 -103.96253 36864 ft 470 kts 145°
2026-05-07 17:54 27.71619 -103.90967 36825 ft 468 kts 145°
2026-05-07 17:54 27.67092 -103.85655 36863 ft 471 kts 145°
2026-05-07 17:55 27.62523 -103.80323 36871 ft 473 kts 145°
2026-05-07 17:55 27.57971 -103.74998 36882 ft 471 kts 145°
2026-05-07 17:56 27.53435 -103.69675 36891 ft 471 kts 145°
2026-05-07 17:56 27.48899 -103.64355 36891 ft 471 kts 145°
2026-05-07 17:57 27.45130 -103.59939 36886 ft 470 kts 145°
2026-05-07 17:57 27.39854 -103.53760 36877 ft 468 kts 145°
2026-05-07 17:58 27.35346 -103.48476 36871 ft 468 kts 145°
2026-05-07 17:58 27.30823 -103.43200 36876 ft 469 kts 145°
2026-05-07 17:59 27.26292 -103.37930 36876 ft 468 kts 145°
2026-05-07 17:59 27.21775 -103.32680 36841 ft 467 kts 144°
2026-05-07 18:00 27.17249 -103.27441 36857 ft 468 kts 144°
2026-05-07 18:00 27.12735 -103.22238 36846 ft 468 kts 144°
2026-05-07 18:01 27.08205 -103.17012 36844 ft 466 kts 144°
2026-05-07 18:01 27.03675 -103.11797 36887 ft 467 kts 144°
2026-05-07 18:02 26.96854 -103.03970 36848 ft 467 kts 144°
2026-05-07 18:03 26.92317 -102.98773 36845 ft 466 kts 144°
2026-05-07 18:03 26.87768 -102.93579 36846 ft 467 kts 144°
2026-05-07 18:04 26.83209 -102.88384 36830 ft 468 kts 144°
2026-05-07 18:04 26.78656 -102.83191 36844 ft 467 kts 144°
2026-05-07 18:05 26.74104 -102.78017 36847 ft 467 kts 144°
2026-05-07 18:05 26.69538 -102.72843 36850 ft 468 kts 144°
2026-05-07 18:06 26.64950 -102.67672 36848 ft 469 kts 144°
2026-05-07 18:06 26.60398 -102.62547 36839 ft 466 kts 144°
2026-05-07 18:07 26.55834 -102.57396 36859 ft 467 kts 144°
2026-05-07 18:07 26.51245 -102.52236 36854 ft 468 kts 144°
2026-05-07 18:08 26.46667 -102.47090 36857 ft 466 kts 144°
2026-05-07 18:08 26.42084 -102.41945 36852 ft 468 kts 144°
2026-05-07 18:09 26.37485 -102.36802 36838 ft 467 kts 144°
2026-05-07 18:09 26.32895 -102.31678 36844 ft 467 kts 144°
2026-05-07 18:10 26.28471 -102.26360 36817 ft 461 kts 139°
2026-05-07 18:10 26.24641 -102.20775 36831 ft 462 kts 124°
2026-05-07 18:10 26.23540 -102.17327 36922 ft 481 kts 111°
2026-05-07 18:11 26.23025 -102.14906 36904 ft 488 kts 109°
2026-05-07 18:11 26.22443 -102.11907 36897 ft 493 kts 108°
2026-05-07 18:12 26.20923 -102.03439 36860 ft 489 kts 107°
2026-05-07 18:12 26.19844 -101.97227 36867 ft 487 kts 107°
2026-05-07 18:13 26.18636 -101.90267 36832 ft 488 kts 107°
2026-05-07 18:13 26.17443 -101.83353 36869 ft 488 kts 107°
2026-05-07 18:14 26.16155 -101.75958 36885 ft 491 kts 107°
2026-05-07 18:14 26.14853 -101.68514 36886 ft 489 kts 107°
2026-05-07 18:15 26.13552 -101.61092 36894 ft 489 kts 107°
2026-05-07 18:15 26.12240 -101.53655 36881 ft 490 kts 107°
2026-05-07 18:16 26.10923 -101.46213 36888 ft 489 kts 107°
2026-05-07 18:16 26.09673 -101.39094 36865 ft 490 kts 107°
2026-05-07 18:17 26.08357 -101.31655 36880 ft 490 kts 107°
2026-05-07 18:17 26.07041 -101.24220 36873 ft 490 kts 107°
2026-05-07 18:18 26.05728 -101.16794 36875 ft 489 kts 107°
2026-05-07 18:18 26.03671 -101.09776 36899 ft 463 kts 136°
2026-05-07 18:18 26.01465 -101.07353 36925 ft 428 kts 158°
2026-05-07 18:19 25.98933 -101.05953 36934 ft 393 kts 167°
2026-05-07 18:19 25.96466 -101.04822 36864 ft 375 kts 169°
2026-05-07 18:19 25.94133 -101.03793 36835 ft 356 kts 169°
2026-05-07 18:19 25.91885 -101.02821 36811 ft 338 kts 171°
2026-05-07 18:20 25.89746 -101.01902 36691 ft 323 kts 171°
2026-05-07 18:20 25.87591 -101.01008 35386 ft 346 kts 171°
2026-05-07 18:20 25.85286 -101.00090 34796 ft 348 kts 170°
2026-05-07 18:20 25.83073 -100.99176 34689 ft 334 kts 170°
2026-05-07 18:21 25.80911 -100.98281 34331 ft 329 kts 170°
2026-05-07 18:21 25.78768 -100.97531 33899 ft 314 kts 185°
2026-05-07 18:21 25.76639 -100.97386 33440 ft 303 kts 188°
2026-05-07 18:21 25.74546 -100.97361 32971 ft 299 kts 188°
2026-05-07 18:22 25.72470 -100.97385 32530 ft 296 kts 189°
2026-05-07 18:22 25.71778 -100.97398 32379 ft 295 kts 189°
2026-05-07 18:22 25.69874 -100.97456 31967 ft 292 kts 189°
2026-05-07 18:22 25.67896 -100.97533 31544 ft 290 kts 189°
2026-05-07 18:23 25.66600 -100.97593 31270 ft 288 kts 189°
2026-05-07 18:23 25.64987 -100.97679 30919 ft 286 kts 189°
2026-05-07 18:23 25.63867 -100.97743 30809 ft 278 kts 189°
2026-05-07 18:23 25.62184 -100.97812 31462 ft 211 kts 190°
2026-05-07 18:24 25.60803 -100.97813 31336 ft 190 kts 190°
2026-05-07 18:24 25.59495 -100.97688 30893 ft 197 kts 175°
2026-05-07 18:24 25.58995 -100.97406 30680 ft 212 kts 156°
2026-05-07 18:25 25.58901 -100.97324 30647 ft 215 kts 153°
2026-05-07 18:25 25.58162 -100.95791 30148 ft 249 kts 109°
2026-05-07 18:25 25.58212 -100.93833 29623 ft 256 kts 93°
2026-05-07 18:25 25.58274 -100.92890 29365 ft 255 kts 95°
2026-05-07 18:26 25.58380 -100.90945 28849 ft 253 kts 95°
2026-05-07 18:26 25.58494 -100.89029 28347 ft 251 kts 94°
2026-05-07 18:26 25.58612 -100.87085 27859 ft 249 kts 94°
2026-05-07 18:26 25.58731 -100.85205 27406 ft 247 kts 94°
2026-05-07 18:27 25.58847 -100.83314 26969 ft 245 kts 94°
2026-05-07 18:27 25.58963 -100.81437 26512 ft 243 kts 94°
2026-05-07 18:27 25.59080 -100.79563 26013 ft 255 kts 93°
2026-05-07 18:27 25.59171 -100.77429 25161 ft 285 kts 94°
2026-05-07 18:28 25.59256 -100.75291 24574 ft 281 kts 94°
2026-05-07 18:28 25.59337 -100.73170 23938 ft 276 kts 94°
2026-05-07 18:28 25.59415 -100.71075 23208 ft 273 kts 94°
2026-05-07 18:28 25.59494 -100.69007 22469 ft 268 kts 94°
2026-05-07 18:29 25.59498 -100.68913 22431 ft 269 kts 94°
2026-05-07 18:29 25.59559 -100.67238 21884 ft 262 kts 94°
2026-05-07 18:29 25.59632 -100.65228 21158 ft 258 kts 94°
2026-05-07 18:29 25.59705 -100.63242 20459 ft 255 kts 94°
2026-05-07 18:30 25.59775 -100.61286 19788 ft 252 kts 94°
2026-05-07 18:30 25.59843 -100.59356 19319 ft 243 kts 94°
2026-05-07 18:30 25.59909 -100.57551 19110 ft 232 kts 94°
2026-05-07 18:30 25.59970 -100.55705 18837 ft 248 kts 93°
2026-05-07 18:31 25.60024 -100.53712 18558 ft 274 kts 94°
2026-05-07 18:31 25.60059 -100.51566 18473 ft 278 kts 94°
2026-05-07 18:31 25.60083 -100.49452 18371 ft 272 kts 94°
2026-05-07 18:31 25.60115 -100.47362 18387 ft 270 kts 94°
2026-05-07 18:32 25.60135 -100.46264 18390 ft 273 kts 94°
2026-05-07 18:32 25.60168 -100.44690 18249 ft 281 kts 94°
2026-05-07 18:32 25.60203 -100.42535 18046 ft 279 kts 94°
2026-05-07 18:32 25.60239 -100.40341 17830 ft 290 kts 94°
2026-05-07 18:33 25.60269 -100.38100 17560 ft 290 kts 94°
2026-05-07 18:33 25.60302 -100.35894 17324 ft 294 kts 93°
2026-05-07 18:33 25.60326 -100.33591 17098 ft 301 kts 94°
2026-05-07 18:33 25.60353 -100.31275 16767 ft 299 kts 94°
2026-05-07 18:34 25.60375 -100.28978 16500 ft 297 kts 94°
2026-05-07 18:34 25.60400 -100.26714 16182 ft 291 kts 94°
2026-05-07 18:34 25.60422 -100.24486 15967 ft 288 kts 93°
2026-05-07 18:34 25.60446 -100.22277 15991 ft 288 kts 93°
2026-05-07 18:35 25.60822 -100.20073 15953 ft 300 kts 63°
2026-05-07 18:35 25.62220 -100.18384 15997 ft 300 kts 32°
2026-05-07 18:35 25.63992 -100.17155 16040 ft 302 kts 31°
2026-05-07 18:35 25.65791 -100.15941 16041 ft 303 kts 30°
2026-05-07 18:36 25.67613 -100.14746 15800 ft 304 kts 29°
2026-05-07 18:36 25.69426 -100.13576 15556 ft 300 kts 28°
2026-05-07 18:36 25.71223 -100.12426 15320 ft 297 kts 28°
2026-05-07 18:36 25.73009 -100.11284 15092 ft 296 kts 28°
2026-05-07 18:37 25.74808 -100.10142 14719 ft 298 kts 28°
2026-05-07 18:37 25.76600 -100.09006 14345 ft 295 kts 28°
2026-05-07 18:37 25.78377 -100.07884 13989 ft 293 kts 28°
2026-05-07 18:37 25.80138 -100.06772 13602 ft 290 kts 28°
2026-05-07 18:38 25.81855 -100.05689 13501 ft 276 kts 28°
2026-05-07 18:38 25.83526 -100.04637 13522 ft 280 kts 28°
2026-05-07 18:38 25.85244 -100.03555 13518 ft 289 kts 28°
2026-05-07 18:38 25.87056 -100.02416 13545 ft 304 kts 28°
2026-05-07 18:39 25.88891 -100.01266 13533 ft 302 kts 28°
2026-05-07 18:39 25.90719 -100.00130 13523 ft 301 kts 25°
2026-05-07 18:39 25.92718 -99.99636 13511 ft 294 kts 350°
2026-05-07 18:39 25.94564 -100.00420 13557 ft 283 kts 315°
2026-05-07 18:40 25.95835 -100.02034 13624 ft 277 kts 302°
2026-05-07 18:40 25.96990 -100.03751 13600 ft 277 kts 301°
2026-05-07 18:40 25.98121 -100.05511 13161 ft 280 kts 300°
2026-05-07 18:40 25.99222 -100.07279 12750 ft 277 kts 300°
2026-05-07 18:41 26.00294 -100.09042 12341 ft 273 kts 300°
2026-05-07 18:41 26.01339 -100.10793 11935 ft 271 kts 300°
2026-05-07 18:41 26.02359 -100.12536 11626 ft 264 kts 300°
2026-05-07 18:41 26.03328 -100.14202 11530 ft 250 kts 300°
2026-05-07 18:42 26.04248 -100.15793 11379 ft 240 kts 300°
2026-05-07 18:42 26.05138 -100.17337 11130 ft 235 kts 300°
2026-05-07 18:42 26.06005 -100.18861 10837 ft 232 kts 298°
2026-05-07 18:42 26.06504 -100.20496 10465 ft 226 kts 263°
2026-05-07 18:43 26.05985 -100.22102 10135 ft 222 kts 236°
2026-05-07 18:43 26.04818 -100.23247 9724 ft 224 kts 211°
2026-05-07 18:43 26.03515 -100.24156 9349 ft 224 kts 213°
2026-05-07 18:43 26.02198 -100.25084 8995 ft 224 kts 212°
2026-05-07 18:44 26.00886 -100.25986 8834 ft 213 kts 211°
2026-05-07 18:44 25.99667 -100.26819 8638 ft 203 kts 211°
2026-05-07 18:44 25.98463 -100.27635 8285 ft 202 kts 211°
2026-05-07 18:44 25.97272 -100.28448 8047 ft 194 kts 211°
2026-05-07 18:45 25.96155 -100.29208 7818 ft 185 kts 211°
2026-05-07 18:45 25.95064 -100.29959 7479 ft 184 kts 211°
2026-05-07 18:45 25.93976 -100.30708 7132 ft 184 kts 211°
2026-05-07 18:45 25.92894 -100.31460 6790 ft 183 kts 211°
2026-05-07 18:46 25.91814 -100.32215 6433 ft 183 kts 211°
2026-05-07 18:46 25.90737 -100.32975 6057 ft 183 kts 211°
2026-05-07 18:46 25.89667 -100.33739 5694 ft 183 kts 211°
2026-05-07 18:46 25.88572 -100.34445 5311 ft 182 kts 197°
2026-05-07 18:47 25.87390 -100.34287 4937 ft 174 kts 141°
2026-05-07 18:47 25.86817 -100.33177 4589 ft 168 kts 104°
2026-05-07 18:47 25.86448 -100.31935 4235 ft 169 kts 108°
2026-05-07 18:47 25.86038 -100.30720 3913 ft 167 kts 108°
2026-05-07 18:48 25.85637 -100.29512 3602 ft 167 kts 108°
2026-05-07 18:48 25.85379 -100.28274 3319 ft 164 kts 89°
2026-05-07 18:48 25.85429 -100.27008 2998 ft 163 kts 88°
2026-05-07 18:48 25.85372 -100.25756 2694 ft 162 kts 103°
2026-05-07 18:49 25.85070 -100.24579 2402 ft 160 kts 99°
2026-05-07 18:49 25.84961 -100.23337 2189 ft 159 kts 101°
2026-05-07 18:49 25.84610 -100.22038 2353 ft 199 kts 111°
2026-05-07 18:49 25.83777 -100.20762 2170 ft 194 kts 129°
2026-05-07 18:50 25.82948 -100.19647 1848 ft 182 kts 128°
2026-05-07 18:50 25.82207 -100.18628 1858 ft 162 kts 128°
2026-05-07 18:50 25.81537 -100.17667 1865 ft 155 kts 126°
2026-05-07 18:50 25.80937 -100.16641 1882 ft 160 kts 120°
2026-05-07 18:51 25.80435 -100.15545 2003 ft 159 kts 117°
2026-05-07 18:51 25.79913 -100.14460 1994 ft 163 kts 120°
2026-05-07 18:51 25.79334 -100.13351 1884 ft 169 kts 121°
2026-05-07 18:51 25.78724 -100.12235 1486 ft 171 kts 123°
2026-05-07 18:52 25.78097 -100.11137 1285 ft 161 kts 123°
2026-05-07 18:52 25.77587 -100.10232 1265 ft 100 kts 121°
2026-05-07 18:52 25.77338 -100.09777 1259 ft 54 kts 123°
2026-05-07 18:52 25.77199 -100.09731 1259 ft 17 kts 197°
2026-05-07 18:53 25.77157 -100.09775 1254 ft 6 kts 249°
2026-05-07 18:53 25.77164 -100.09839 1261 ft 12 kts 292°
2026-05-07 18:53 25.77232 -100.09971 1256 ft 28 kts 301°
2026-05-07 18:53 25.77359 -100.10204 1261 ft 42 kts 301°
2026-05-07 18:54 25.77519 -100.10492 1267 ft 41 kts 302°
2026-05-07 18:54 25.77656 -100.10744 1270 ft 36 kts 303°
2026-05-07 18:54 25.77779 -100.10963 1272 ft 31 kts 301°
2026-05-07 18:54 25.77874 -100.11137 1274 ft 20 kts 303°
2026-05-07 18:55 25.77911 -100.11228 1275 ft 10 kts 263°
2026-05-07 18:55 25.77881 -100.11267 1275 ft 5 kts 211°
2026-05-07 18:55 25.77860 -100.11281 1275 ft 3 kts 212°
2026-05-07 18:55 25.77851 -100.11287 1275 ft 1 kts 211°
2026-05-07 18:56 25.77850 -100.11288 1275 ft 0 kts 211°